Regional Weather Roundup
Issued by NWS Wakefield, VA

Home | Current Version | Previous Version | Text Only | Print | Product List | Glossary Off
Versions: 1 2 3 4 5 6 7 8 9 10 11 12 13 14 15 16 17 18 19 20 21 22 23 24 25 26 27 28 29 30 31 32 33 34 35 36 37 38 39 40 41 42 43 44 45 46 47 48 49 50

000
ASUS41 KAKQ 241914
RWRAKQ

REGIONAL WEATHER ROUNDUP
NATIONAL WEATHER SERVICE WAKEFIELD VA
300 PM EDT SUN MAY 24 2015

Note: "fair" indicates few or no clouds below 12,000 feet with no
significant weather and/or obstructions to visibility. * = Denotes
station may not report precipitation (e.g., rain,snow,etc.),
thunder or fog.

VAZ042-051-052>054-056-242000-
NORTHERN VIRGINIA

CITY           SKY/WX    TMP DP  RH WIND       PRES   REMARKS
WASH NATIONAL  MOSUNNY   80  60  50 S10       30.31F
DULLES         MOSUNNY   79  47  32 CALM      30.30F
FORT BELVOIR   SUNNY     80  57  45 VRB5      30.30F
QUANTICO       SUNNY     78  61  55 S8        30.31F
FREDERICKSBRG* SUNNY     84  55  35 S8        30.30F
STAFFORD*      SUNNY     82  50  32 W8        30.35S
WARRENTON      SUNNY     82  57  41 CALM      30.30F
CULPEPER*      SUNNY     81  55  40 S5        30.31F
MANASSAS*      SUNNY     81  52  36 CALM      30.31F
LEESBURG*      SUNNY     81  46  30 CALM      30.31F
WINCHESTER     SUNNY     82  27  13 SE5       30.30F
FRONT ROYAL*   FAIR      79  52  38 S5        30.29F
LURAY*         FAIR      82  54  36 S5        30.30F
$$

VAZ048-049-060>072-079>083-242000-
CENTRAL AND SOUTH CENTRAL VIRGINIA

CITY           SKY/WX    TMP DP  RH WIND       PRES   REMARKS
RICHMOND       MOSUNNY   82  56  40 SW8G17    30.33F
CHESTERFIELD*  NOT AVBL
PETERSBURG*    MOSUNNY   83  53  34 SW7       30.35F
HANOVER        SUNNY     81  54  39 SW7G21    30.34F
TAPPAHANNOCK*  MOSUNNY   84  48  28 SW9       30.33F
QUINTON*       FAIR      80  57  46 SW5       30.33F
CHARLOTTSVILLE MOSUNNY   83  52  34 SW12G17   30.30F
GORDONSVILLE*  FAIR      81  54  38 SW10      30.30F
ORANGE*        SUNNY     82  54  36 S8        30.32F
LOUISA*        SUNNY     82  54  36 SW9       30.30F
BUMPASS*       FAIR      80  55  41 SW9       30.32S
FARMVILLE*     SUNNY     82  54  38 S13       30.32F
CREWE*         FAIR      81  54  39 S6        30.34F
FORT PICKETT*  FAIR      79  55  44 S9        30.35F
CHASE CITY*    FAIR      82  58  44 S3        30.36S
CLARKSVILLE*   FAIR      79  55  44 S6        30.35F
SOUTH HILL*    MOSUNNY   79  56  45 CALM      30.41F
LAWRENCEVILLE* FAIR      79  57  47 SW6       30.35F
EMPORIA*       MOSUNNY   79  55  44 S7        30.37F
$$

VAZ088>098-242000-
SOUTHEAST VIRGINIA

CITY           SKY/WX    TMP DP  RH WIND       PRES   REMARKS
NORFOLK        PTSUNNY   77  52  41 E7        30.35F
VIRGINIA BEACH MOSUNNY   77  53  43 SE14      30.36F
NORFOLK NAVAL  PTSUNNY   84  57  39 N7        30.36F
WEST POINT*    SUNNY     84  52  33 SW9       30.35F
SALUDA*        FAIR      79  55  43 W6        30.33F
NEWPORT NEWS   SUNNY     84  57  39 SW6       30.35F
LANGLEY AFB    MOSUNNY   80  59  49 SW12G17   30.34F
FORT EUSTIS    MOSUNNY   78  60  53 VRB6      30.33F
WILLIAMSBURG*  SUNNY     84  57  39 CALM      30.35F
HR EXEC AP*    MOCLDY    81  57  44 S8        30.37F
FRANKLIN*      MOSUNNY   81  55  40 S6        30.35F
WAKEFIELD      SUNNY     81  56  42 S6        30.34F
$$

VAZ020-022-025-037-045-242000-
WEST CENTRAL AND SOUTHWEST VIRGINIA

CITY           SKY/WX    TMP DP  RH WIND       PRES   REMARKS
STAUNTON*      SUNNY     82  48  29 S10       30.33F
WAYNESBORO*    FAIR      79  48  33 SW7G16    30.34S
HOT SPRINGS VA PTSUNNY   69  47  44 S12       30.40F
LYNCHBURG      MOSUNNY   80  51  36 S10G20    30.35F
DANVILLE       MOSUNNY   81  53  37 SW8G17    30.35F
SOUTH BOSTON*  FAIR      80  53  39 SE7       30.35F
MARTINSVILLE   SUNNY     82  51  34 S3        30.37F
ROANOKE        MOSUNNY   81  49  32 S17       30.33F
BLACKSBURG     SUNNY     75  47  37 S6        30.39F
DUBLIN*        SUNNY     78  46  32 SW12      30.37F
MARION*        SUNNY     77  45  31 SE5       30.38F
HILLSVILLE*    SUNNY     71  52  49 S8G17     30.40F
RICHLANDS*     FAIR      75  49  39 S3        30.35F
WISE*          SUNNY     77  41  27 SE8       30.35F
ABINGDON*      SUNNY     81  49  31 SW5       30.33F
$$

MDZ021>025-VAZ099-100-242000-
SOUTHERN MARYLAND AND THE DELMARVA PENINSULA

CITY           SKY/WX    TMP DP  RH WIND       PRES   REMARKS
PATUXENT RIVER MOSUNNY   74  60  61 SE12      30.31F
BAY BRIDGE APT   N/A    N/A N/A N/A S6        30.32F
LEONARDTOWN    SUNNY     79  54  41 S7        30.33F
DOVER          MOSUNNY   79  58  48 SW7G17    30.28F
GEORGETOWN     SUNNY     79  53  40 S15       30.32F
EASTON         MOSUNNY   79  57  47 SW10      30.36F
CAMBRIDGE      SUNNY     77  55  47 SW9       30.33F
SALISBURY      SUNNY     77  54  44 SW10      30.33F
OCEAN CITY     SUNNY     69  51  52 S8G21     30.36F
WALLOPS ISLAND SUNNY     69  48  47 S16       30.38F
ACCOMACK*      SUNNY     72  46  40 S14       30.37F
$$

NCZ012>017-030>032-242000-
NORTH CENTRAL AND EASTERN NORTH CAROLINA

CITY           SKY/WX    TMP DP  RH WIND       PRES   REMARKS
ROANOKE RAPIDS MOCLDY    79  55  44 S5        30.36F
RALEIGH        MOSUNNY   80  54  40 VRB3      30.37F
ELIZABETH CITY SUNNY     78  58  49 SE12      30.38F
AHOSKIE*       SUNNY     78  55  44 S3        30.37F
EDENTON*         N/A     79  56  45 SW6       30.37F
CURRITUCK*     SUNNY     77  52  42 E9        30.38F
KILL DEVIL HLS SUNNY     73  50  43 SE8       30.39S
MANTEO         SUNNY     74  55  50 E9        30.40S
CAPE HATTERAS  SUNNY     76  54  46 E7        30.40F
TARBORO*       FAIR      82  54  38 SW6       30.37F
GOLDSBORO      MOSUNNY   83  56  38 E6        30.34F
WASHINGTON     SUNNY     79  56  44 SE8       30.37F
GREENVILLE     SUNNY     79  54  41 S5        30.37F
NEW BERN       MOSUNNY   81  57  43 SE9       30.38F
WILMINGTON     MOSUNNY   79  55  43 E10       30.37F
$$

VAZ048-242000-
ELSEWHERE

CITY           SKY/WX    TMP DP  RH WIND       PRES   REMARKS
HARRISBURG PA  PTSUNNY   79  46  31 SE6       30.28F
BALTIMORE      MOSUNNY   80  52  37 CALM      30.30F
ANNAPOLIS      SUNNY     70  59  68 SE13      30.31F
ANDREWS AFB    SUNNY     79  54  42 S9        30.31F
PHILADELPHIA   MOSUNNY   78  49  35 W13       30.30F
HENDERSON NC   MOSUNNY   80  52  37 S6        30.36F
GREENSBORO     SUNNY     78  52  40 CALM      30.35F
ROCKY MOUNT    MOSUNNY   83  54  36 VRB5      30.36F
$$

VAZ100-242000-
MARINE

STATION/POSITION TIME  TEMP    WIND        PRES    WAVE   SWELL
                       AIR SEA DIR/SP/G            HT/PER HT/PER
                 (UTC) (F)     (DEG/KT/KT) (MB)    (FT/S) (FT/S)
BRANDYWINE LGT   1800   63 64  170/ 16/ 18 1027.6F
CAPE MAY NJ      1800   68 67  170/ 13/ 20 1027.4F
LEWES DE         1800   74 63  170/  7/ 13 1027.1F
15NM E FENWICK I 1850   61 60              1027.9F   2/ 3
OCEAN-CITY-INLET 1800   62 61  210/ 12/ 15 1028.3F
WACHAPREAGUE VA  1800   69 69  200/ 12/ 15 1029.0F
THOMAS POINT MD  1900   69 66  160/  8/  9 1027.2F
GOOSES REEF MD   1900   67 66  170/ 14/ 16 1027.5F   1/ 3
SOLOMONS ISLAND  1800      70                N/A
BISHOPS HEAD MD  1800   70 71  170/ 11/ 15 1027.6F
PINEY POINT MD   1800          300/  3/  4   N/A
CAMBRIDGE MD     1800   74 69  210/  5/ 12 1027.3F
LEWISETTA VA     1800   76 70              1027.0F
RAPPAHANNOCK LGT 1800          170/  9/ 11 1029.0F
STINGRAY PT      1900   69 69  160/ 17/ 19 1027.1F   2/ 3
YORK RVR RNG VA  1800   68     130/ 14/ 15 1027.8F
YORKTOWN VA      1800   77 70  220/  3/ 12 1028.0F
JAMESTOWN VA     1900   77 74  230/  8/ 10 1026.4F
DOMINION TERM VA 1800   75     190/  7/  9 1028.4F
KIPTOPEKE VA     1800      73  170/ 12/ 14   N/A
CHES BAY BRIDGE  1800   71 66   80/  7/ 12 1028.4F
CAPE HENRY VA    1800   68     130/ 15/ 20 1027.7F
CHESAPEAKE LGHT  1800   63     150/ 16/ 17 1029.6F
WILLOUBY STN VA  1800   74      10/  1/  2 1029.3F
CAPE HENRY BUOY  1828      67                N/A     2/ 3
1ST LANDING BUOY 1900      68              1028.1F
CAPE CHARLES BUO 1826      66                N/A     2/ 3   2/ 6
OFFSHORE WE BUOY 1811      62                N/A     2/ 7   2/ 7
64NM E OF VA BCH 1850   64 62  150/  6/  6 1029.0F   1/ 7   2/ 7
DUCK PIER NC     1800   67 63  130/ 11/ 12 1028.5F
44100 DUCK FRF   1824      64                N/A     2/ 7
44056 DUCK FRF   1811      65                N/A     2/ 4
OREGON INLET NC  1800   71 70   90/  8/ 13 1029.6F
HATTERAS NC      1800   73 73  120/  6/  9 1029.2F
DIAMOND SHLS NC  1850   74 79   70/  6/  8 1029.2F   2/ 7   2/ 7
CAPE LOOKOUT NC  1900   75      90/  6/  7 1028.6F
$$


USA.gov is the U.S. government's official web portal to all federal, state and local government web resources and services.